This demonstration page uses our WeatherBlox Daily Observations layout. Learn more.

Left ArrowRight Arrow

47.50024, -111.30081

Hourly Observations for May 3, 2019

Temp ( °F °C ) Dew Point ( °F °C ) Humidity (%) Winds ( mph kmh ) Pressure ( in mb ) Visibility ( mi km ) Precip ( " mm )
12:53 am 00:53 Clear 31 -0.6 26 -3.3 82 82 SSW 10 17 30.01 1016 10 16 0.00 0.00
1:53 am 01:53 Clear 32 0 26 -3.3 79 79 SSW 12 19 29.99 1016 10 16 0.00 0.00
2:53 am 02:53 Clear 33 0.6 26 -3.3 75 75 SSW 10 17 29.99 1016 10 16 0.00 0.00
3:53 am 03:53 Clear 33 0.6 26 -3.3 75 75 SSW 14 22 29.98 1015 10 16 0.00 0.00
4:53 am 04:53 Clear 36 2.2 26 -3.3 67 67 SSW 14 22 29.96 1015 10 16 0.00 0.00
5:53 am 05:53 Clear 36 2.2 26 -3.3 67 67 SSW 14 22 29.98 1015 10 16 0.00 0.00
6:53 am 06:53 Sunny 37 2.8 27 -2.8 67 67 SW 12 19 29.97 1015 10 16 0.00 0.00
7:53 am 07:53 Sunny 44 6.7 29 -1.7 55 55 SW 14 22 29.97 1015 10 16 0.00 0.00
8:53 am 08:53 Sunny 49 9.4 28 -2.2 44 44 SW 20 31 29.94 1014 10 16 0.00 0.00
9:53 am 09:53 Sunny 53 11.7 28 -2.2 38 38 SW 20 31 29.94 1014 10 16 0.00 0.00
10:53 am 10:53 Sunny 57 13.9 28 -2.2 33 33 WSW 20 31 29.94 1014 10 16 0.00 0.00
11:53 am 11:53 Sunny 59 15 29 -1.7 32 32 SW 20 31 29.93 1013 10 16 0.00 0.00
12:53 pm 12:53 Mostly Sunny 63 17.2 26 -3.3 25 25 SW 25 41 29.90 1013 10 16 0.00 0.00
1:53 pm 13:53 Mostly Sunny 64 17.8 25 -3.9 23 23 WSW 15 24 29.88 1012 10 16 0.00 0.00
2:53 pm 14:53 Mostly Cloudy 62 16.7 24 -4.4 23 23 W 17 28 29.88 1012 10 16 0.00 0.00
3:53 pm 15:53 Mostly Cloudy 62 16.7 24 -4.4 23 23 W 23 37 29.87 1011 10 16 0.00 0.00
4:53 pm 16:53 Partly Cloudy 64 17.8 23 -5 21 21 WNW 20 31 29.85 1011 10 16 0.00 0.00
5:53 pm 17:53 Mostly Sunny 62 16.7 21 -6.1 21 21 WNW 15 24 29.87 1012 10 16 0.00 0.00
6:53 pm 18:53 Sunny 61 16.1 22 -5.6 22 22 WNW 13 20 29.88 1012 10 16 0.00 0.00
7:53 pm 19:53 Sunny 57 13.9 25 -3.9 29 29 NNW 9 15 29.87 1012 10 16 0.00 0.00
8:53 pm 20:53 Clear 52 11.1 26 -3.3 37 37 Calm 29.89 1012 10 16 0.00 0.00
9:53 pm 21:53 Clear 50 10 27 -2.8 41 41 N 3 6 29.89 1012 10 16 0.00 0.00
10:53 pm 22:53 Clear 46 7.8 31 -0.6 56 56 SSW 3 6 29.89 1012 10 16 0.00 0.00
11:53 pm 23:53 Clear 47 8.3 30 -1.1 52 52 SSE 6 9 29.89 1012 10 16 0.00 0.00

Powered by AerisWeather